Weather in Luderitz

Namibia     26°38′44″S   15°09′37″E
temp.,
°C
wind,
m/s
gust,
m/s
humid.,
%
clouds,
%
prec.,
mm/h
press.,
hPa
HPBL,
m
27 october, wed
wed2723:00+14se11920 0.0 101611
02:00+14ese22905 0.0 101311
05:00+13sw118826 0.0 101310
08:00+16n3382100 0.0 1017241
11:00+27ne452493 0.0 1015588
14:00+24w6638100 0.0 1014546
17:00+21wsw4554100 0.2 1013261
20:00+17wnw4575100 0.3 1015241
28 october, thu
thu2823:00+18sw0166100 0.1 1015108
02:00+17s2273100 0.1 101465
05:00+14s34886 0.0 101388
08:00+17s34750 0.0 1015260
11:00+23sw43460 0.0 1015545
14:00+22ssw76520 0.0 1014585
17:00+19ssw76640 0.0 1014518
20:00+15s47870 0.0 1015258
29 october, fri
fri2923:00+14s35880 0.0 1016129
02:00+13sse33880 0.0 101548
05:00+12sse33830 0.0 101521
08:00+16sse35540 0.0 1016244
11:00+23ssw65320 0.0 1015682
14:00+22ssw88460 0.0 1014567
17:00+21ssw910510 0.0 1013500
20:00+17s510730 0.0 1014237
30 october, sat
sat3023:00+16s45750 0.0 101460
02:00+15sse11710 0.0 101213
05:00+14sw01700 0.0 101111
08:00+20e01440 0.0 1012118
11:00+27wsw43260 0.0 1011702
14:00+25wsw54360 0.0 1010482
17:00+21wsw44544 0.0 1010379
20:00+16wsw11805 0.0 1013130
31 october, sun
sun3123:00+15wnw11875 0.0 101427
02:00+13wnw11935 0.0 101310
05:00+12nw11930 0.0 101310
08:00+16nw12660 0.0 1014193
11:00+20wnw44520 0.0 1014538
14:00+21wsw54530 0.0 1014607
17:00+19sw55640 0.0 1014557
20:00+16ssw23830 0.0 1016234